Simultaneous Nadir Overpasses (SNOs) Predictions

Prediction of SNOs between AURA and NPP Satellite Orbit:

Table of predicted SNOs for the next 14.0 days since TLE Epoch: 2/18/2023
Index Date (AURA) Time (AURA) Lat,Lon (AURA) SZA (AURA ) Date (NPP) Time (NPP) Lat,Lon (NPP) SZA (NPP ) Distance(km) Time Diff (sec)
1 02/18/2023 20:00:07 79.45, 137.05 104.30 02/18/2023 20:00:06 79.45, 137.10 104.29 1.05 1
2 02/18/2023 20:47:33 -81.78, -11.15 82.38 02/18/2023 20:48:46 -81.18, -11.34 82.69 67.54 73
3 02/21/2023 11:27:10 -79.29, 84.23 76.42 02/21/2023 11:26:21 -79.29, 84.28 76.39 1.03 49
4 02/21/2023 12:16:31 79.48,-106.87 103.31 02/21/2023 12:17:00 79.47,-106.98 103.31 2.52 29
5 02/24/2023 03:43:30 -79.37,-159.36 77.50 02/24/2023 03:43:12 -79.37,-159.32 77.50 0.83 18
6 02/24/2023 04:32:50 79.58, 9.80 102.17 02/24/2023 04:33:50 79.58, 9.70 102.15 2.28 60
7 02/26/2023 19:10:27 79.25, 148.15 101.68 02/26/2023 19:09:24 79.25, 148.22 101.72 1.47 63
8 02/26/2023 19:59:49 -79.45, -42.89 78.62 02/26/2023 20:00:04 -79.44, -42.98 78.61 1.99 15
9 03/01/2023 11:26:43 79.37, -95.09 100.49 03/01/2023 11:26:14 79.38, -94.97 100.49 2.52 29
10 03/01/2023 12:16:05 -79.57, 73.91 79.82 03/01/2023 12:16:54 -79.57, 73.86 79.85 0.98 49



Historial Predications of SNOs between AURA and NPP
